Edithistory:Kavita Shah
From EverybodyWiki Bios & Wiki
| oldid | date/time | username | edit summary |
|---|---|---|---|
| 844573713 | 2018-06-05T19:13:39Z | PaulCHebert | /* Music */ The review excerpts are sourned not to the reviews, but to pulled quotes on a record label's promotional advertisement. |
| 844573365 | 2018-06-05T19:11:29Z | PaulCHebert | /* Music */ proper grammar |
| 844563915 | 2018-06-05T18:15:01Z | Woojy88 | /* Music */Grammar |
| 844563822 | 2018-06-05T18:14:25Z | Woojy88 | /* Music */Performed cited edits. |
| 844561944 | 2018-06-05T18:03:06Z | Woojy88 | /* Music */Performed cited edits. |
| 844561488 | 2018-06-05T18:00:19Z | Woojy88 | /* Music */Performed cited edits. |
| 844114307 | 2018-06-02T18:18:42Z | EddieHugh | /* Music */ yes, around; the source doesn't give the release year. Corrected formatting |
| 844101929 | 2018-06-02T16:40:16Z | PaulCHebert | /* Music */ "around"? Get the right year. |
| 844063999 | 2018-06-02T10:23:24Z | EddieHugh | /* Music */ -space |
| 844063968 | 2018-06-02T10:23:04Z | EddieHugh | overlinking |
| 844063914 | 2018-06-02T10:22:17Z | EddieHugh | infobox formatting |
| 844063825 | 2018-06-02T10:21:04Z | EddieHugh | DB review of new album |
| 844063102 | 2018-06-02T10:12:56Z | EddieHugh | /* Discography */ +1 |
| 843738510 | 2018-05-31T03:49:07Z | PaulCHebert | |
| 843726714 | 2018-05-31T01:44:37Z | Woojy88 | /* As a sidewoman */ Performed cited edits. |
| 843726544 | 2018-05-31T01:43:07Z | Woojy88 | /* As a sidewoman */ Performed cited edits. |
| 843724117 | 2018-05-31T01:23:55Z | Woojy88 | /* Discography */ Performed cited edits |
| 843723290 | 2018-05-31T01:16:08Z | Woojy88 | /* Early years */ Removed uncited written content. |
| 843723038 | 2018-05-31T01:13:45Z | Woojy88 | /* Early years */ Removed uncited written content. |
| 843721479 | 2018-05-31T01:01:33Z | Woojy88 | /* Early years */ Performed cited edits. |
| 843721265 | 2018-05-31T00:59:25Z | Woojy88 | /* Early years */ Added a cited wiki link. |
| 843721081 | 2018-05-31T00:57:27Z | Woojy88 | /* Music */ Performed cited edits. |
| 843720922 | 2018-05-31T00:55:56Z | Woojy88 | /* Music */ Performed cited edits. |
| 843720053 | 2018-05-31T00:47:47Z | Woojy88 | /* Early years */ Performed cited edits. |
| 843717038 | 2018-05-31T00:19:15Z | Woojy88 | /* Early years */ Performed edits upon a citation |
| 843716812 | 2018-05-31T00:16:48Z | Woojy88 | /* Music */ Performed cited edits. |
| 843716370 | 2018-05-31T00:12:28Z | Woojy88 | /* Early years */ Performed cited edits. |
| 843716187 | 2018-05-31T00:10:47Z | Woojy88 | Performed edits upon introductory section. |
| 843715848 | 2018-05-31T00:07:31Z | Woojy88 | Cleaned up introductory section. |
| 843715640 | 2018-05-31T00:05:07Z | Woojy88 | /* Music */ Removed an expired citation. |
| 843715564 | 2018-05-31T00:04:21Z | Woojy88 | /* Music */ Performed edits upon a citation. |
| 843715525 | 2018-05-31T00:03:51Z | Woojy88 | /* Early years */ Performed edits upon a citation |
| 843715453 | 2018-05-31T00:03:13Z | Woojy88 | /* Music */ Performed edits upon a citation. |
| 843715200 | 2018-05-31T00:01:10Z | Woojy88 | /* Early years */ Performed edits upon a citation |
| 843715007 | 2018-05-30T23:59:25Z | Woojy88 | /* Early years */ Performed a citation |
| 843714061 | 2018-05-30T23:50:24Z | Woojy88 | /* Music */ Performed cited edits. |
| 843713856 | 2018-05-30T23:48:52Z | Woojy88 | /* Music */ Performed cited edits. |
| 843713698 | 2018-05-30T23:47:22Z | Woojy88 | /* Music */ Performed cited edits. |
| 843713603 | 2018-05-30T23:46:18Z | Woojy88 | /* Music */ Performed cited edits. |
| 843712972 | 2018-05-30T23:40:38Z | Woojy88 | /* Music */ Performed edits upon a cited wiki link. |
| 843712863 | 2018-05-30T23:39:36Z | Woojy88 | /* Music */ Performed cited edits. |
| 843711682 | 2018-05-30T23:27:23Z | Woojy88 | /* Music */ Performed cited edits. |
| 843711520 | 2018-05-30T23:25:35Z | Woojy88 | /* Music */ Performed cited edits. |
| 843711375 | 2018-05-30T23:23:58Z | Woojy88 | Performed edits upon a citation. |
| 843711323 | 2018-05-30T23:23:17Z | Woojy88 | /* Early years */ Performed a citation |
| 843711035 | 2018-05-30T23:19:56Z | Woojy88 | /* As leader */Performed edits upon a citation. |
| 843710989 | 2018-05-30T23:19:25Z | Woojy88 | /* Music */Performed cited edits. |
| 843710478 | 2018-05-30T23:13:25Z | Woojy88 | /* As leader */ Performed cited edits |
| 843093404 | 2018-05-26T20:49:12Z | Filedelinkerbot | Bot: Removing [[c:File:Kavita Shah.jpg]] ([[:File:Kavita Shah.jpg|en]]). Deleted by [[:C:User:Túrelio|Túrelio]] ([[Commons:COM:L|Copyright violation]]: Copyrighted from this source: www.kavitashahmusic.com/photos). |
| 843008150 | 2018-05-26T06:43:53Z | Dorsetonian | Undid revision 843003908 by [[Special:Contributions/Siddiqsazzad001|Siddiqsazzad001]] ([[User talk:Siddiqsazzad001|talk]]) G5 Does not apply - user was not blocked/banned when article was created |
| 843003908 | 2018-05-26T05:45:56Z | Siddiqsazzad001 | Requesting speedy deletion ([[WP:CSD#G5|CSD G5]]). ([[WP:TW|TW]]) |
| 842787758 | 2018-05-24T17:25:46Z | PaulCHebert | /* Music */ The way this formatted gave the source as "Jazz, All About" instead of "All About Jazz" |
| 842721486 | 2018-05-24T07:24:30Z | Dorsetonian | Added {{[[:Template:COI|COI]]}} tag to article ([[WP:TW|TW]]) |
| 842718631 | 2018-05-24T06:46:07Z | Winged Blades of Godric | Nominated for deletion; see [[:Wikipedia:Articles for deletion/Kavita Shah]]. ([[WP:TW|Twinkle]]) |
| 842718366 | 2018-05-24T06:42:49Z | SamHolt6 | Restored to pre-udp edit version |
| 842715645 | 2018-05-24T06:03:45Z | AnomieBOT | Fixing reference errors |
| 842712483 | 2018-05-24T05:22:08Z | PaulCHebert | |
| 842691770 | 2018-05-24T01:48:35Z | Amoamorna | |
| 842651233 | 2018-05-23T19:47:45Z | Dorsetonian | Reverted to revision 804952910 by [[Special:Contributions/NihlusBOT|NihlusBOT]] ([[User talk:NihlusBOT|talk]]): [[WP:PAID]] (https://en.wikipedia.org/w/index.php?title=User_talk:108.27.80.32&oldid=842640763); [[WP:NPOV]]. ([[WP:TW|TW]]) |
| 842644494 | 2018-05-23T18:56:24Z | PaulCHebert | |
| 842643632 | 2018-05-23T18:50:13Z | 108.27.80.32 | Update Music and Discography section, add references. |
| 842642363 | 2018-05-23T18:41:36Z | 108.27.80.32 | Fix citation |
| 842641923 | 2018-05-23T18:38:32Z | 108.27.80.32 | Add NPR citation. |
| 842641676 | 2018-05-23T18:36:50Z | 108.27.80.32 | edit italics |
| 842641584 | 2018-05-23T18:36:14Z | 108.27.80.32 | Updated discography |
| 842640305 | 2018-05-23T18:27:51Z | Dorsetonian | Reverted 4 edits by [[Special:Contributions/108.27.80.32|108.27.80.32]] ([[User talk:108.27.80.32|talk]]): Not written from a [[WP:NPOV]]. ([[WP:TW|TW]]) |
| 842640076 | 2018-05-23T18:26:04Z | 108.27.80.32 | |
| 842640004 | 2018-05-23T18:25:30Z | 108.27.80.32 | Update links |
| 842638814 | 2018-05-23T18:16:55Z | 108.27.80.32 | Fixed reference links & added new references. |
| 842638176 | 2018-05-23T18:12:47Z | 108.27.80.32 | Updated Kavita's biography and recent work which was outdated from 2014. |
| 804952910 | 2017-10-12T03:26:39Z | NihlusBOT | /* top */removing deprecated {{[[Template:Infobox musical artist|Infobox musical artist]]}} parameters ([[Wikipedia:Bots/Requests for approval/NihlusBOT 4|Task 4]]) |
| 783858060 | 2017-06-05T03:03:26Z | PaulCHebert | |
| 783854085 | 2017-06-05T02:24:04Z | Sadads | running refs through citoid |
| 783853104 | 2017-06-05T02:14:40Z | Sadads | link [[Vermont Jazz Center]] using [[:en:User:Edward/Find link|Find link]] |
| 724432409 | 2016-06-09T06:48:50Z | KasparBot | migrating [[Wikipedia:Persondata|Persondata]] to Wikidata, [[toollabs:kasparbot/persondata/|please help]], see [[toollabs:kasparbot/persondata/challenge.php/article/Kavita Shah|challenges for this article]] |
| 699099478 | 2016-01-10T06:39:13Z | Midas02 | Disambiguating links to [[Steve Wilson]] (link changed to [[Steve Wilson (saxophonist)]]) using [[User:Qwertyytrewqqwerty/DisamAssist|DisamAssist]]. |
| 698040381 | 2016-01-03T17:02:38Z | PKT | clarification needed: [[Steve Wilson]] |
| 669202871 | 2015-06-29T16:14:51Z | BD2412 | minor fixes, mostly [[Wikipedia:Disambiguation pages with links|disambig links]] using [[Project:AWB|AWB]] |
| 667577224 | 2015-06-19T02:36:14Z | 71.183.19.230 | |
| 667577147 | 2015-06-19T02:35:03Z | 71.183.19.230 | |
| 667577102 | 2015-06-19T02:34:17Z | 71.183.19.230 | |
| 664010302 | 2015-05-25T21:48:44Z | Wiae | Disambiguating links to [[Kora]] (link changed to [[Kora (instrument)]]) using [[User:Qwertyytrewqqwerty/DisamAssist|DisamAssist]]. |
| 649703817 | 2015-03-03T16:17:53Z | GoodDay | Reduce whitespace |
| 623723728 | 2014-09-01T15:56:58Z | PaulCHebert | |
| 616803973 | 2014-07-13T16:43:54Z | Patken4 | added [[Category:Harvard University alumni]] using [[WP:HC|HotCat]] |
| 615097845 | 2014-07-01T02:10:28Z | Kbabej | Hyperlinks added, minor edits. |
| 615094749 | 2014-07-01T01:34:28Z | Bonnie13J | |
| 615070602 | 2014-06-30T21:23:33Z | ThaddeusB | Cleaning up accepted [[Wikipedia:Articles for creation|Articles for creation]] submission ([[WP:AFCHRW|afch-rewrite]] 0.8) |
| 615070592 | 2014-06-30T21:23:30Z | ThaddeusB | ThaddeusB moved page [[Draft:Kavita Shah]] to [[Kavita Shah]]: Publishing accepted [[Wikipedia:Articles for creation|Articles for creation]] submission ([[WP:AFCHRW|afch-rewrite]] 0.8) |
| 615069524 | 2014-06-30T21:20:51Z | ThaddeusB | Submitting ([[WP:AFCHRW|afch-rewrite]] 0.8) |
| 615059035 | 2014-06-30T19:43:51Z | Balablitz | Declining submission: submission is unsourced or contains only unreliable sources ([[WP:AFCH|AFCH]]) |
| 615058854 | 2014-06-30T19:42:16Z | Balablitz | cln up; rm per [[WP:SPS]] & [[WP:ELNO]] |
| 615058436 | 2014-06-30T19:38:57Z | Balablitz | /* top */ pic frmt |
| 613823708 | 2014-06-21T15:47:53Z | BethNaught | Cleaning [[Wikipedia:Articles for creation]] submission ([[WP:AFCH|AFCH]] beta) |
| 613171550 | 2014-06-16T18:00:05Z | Kavitamusic | /* Kavita Shah Page */ new section |
| 613171396 | 2014-06-16T17:58:41Z | Kavitamusic | |
| 613171328 | 2014-06-16T17:58:07Z | Kavitamusic | |
| 613171286 | 2014-06-16T17:57:44Z | Kavitamusic | |
| 613171245 | 2014-06-16T17:57:24Z | Kavitamusic | |
| 611305374 | 2014-06-02T23:55:31Z | FoCuSandLeArN | Declining submission: music - Submission is about a musician or musical work that does not meet notability guidelines ([[WP:AFCHRW|afch-rewrite]] 0.8) |
| 610401400 | 2014-05-27T21:15:27Z | Rankersbo | Cleaning up submission ([[WP:AFCHRW|afch-rewrite]] 0.8) |
| 610401350 | 2014-05-27T21:15:06Z | Rankersbo | Rankersbo moved page [[User:Kavitamusic/Kavita Shah]] to [[Draft:Kavita Shah]]: Preferred location for [[WP:AFC|AfC]] submissions |
| 609860441 | 2014-05-23T20:51:04Z | Kavitamusic | /* Kavita Shah Page */ new section |
| 609852460 | 2014-05-23T19:44:28Z | Kavitamusic | |
| 609852332 | 2014-05-23T19:43:31Z | Kavitamusic | |
| 609851908 | 2014-05-23T19:40:10Z | Kavitamusic | |
| 609851421 | 2014-05-23T19:36:20Z | Kavitamusic | |
| 609850984 | 2014-05-23T19:32:45Z | 71.183.22.200 | |
| 609533232 | 2014-05-21T14:58:11Z | Kavitamusic | |
| 609533002 | 2014-05-21T14:56:14Z | Kavitamusic | |
| 609532708 | 2014-05-21T14:53:54Z | Kavitamusic | |
| 609531976 | 2014-05-21T14:47:42Z | Kavitamusic | |
| 609531372 | 2014-05-21T14:42:35Z | Kavitamusic | |
| 609529991 | 2014-05-21T14:29:27Z | Kavitamusic | |
| 609529906 | 2014-05-21T14:28:50Z | Kavitamusic | |
| 609528983 | 2014-05-21T14:20:37Z | Kavitamusic | |
| 609527787 | 2014-05-21T14:10:20Z | Kavitamusic | |
| 609527557 | 2014-05-21T14:08:32Z | Kavitamusic | |
| 609527373 | 2014-05-21T14:06:55Z | Kavitamusic | |
| 609527224 | 2014-05-21T14:05:36Z | Kavitamusic | [[WP:AES|←]]Created page with '{{Userspace draft|source=ArticleWizard|date={{Subst:CURRENTMONTHNAME}} {{Subst:CURRENTYEAR}}}} {{Subst:Nul|<==do not change this line, it will set the date autom...' |
